Theta_e
353 354 354 354 353 353 353 353 353 353 352 352 352 352 352 351 351 352 351 351 351 350 349 349 348 349 350 351 351 350 350 350 351 352 353 353 353 352 353 353 354 354 354 355 355 357 358 358 358 357 357 357 356 355 352 350 347 344 344 344 342 341 340 339 339 339 340 339 339 339 339 338 337 338 337 337 337 336 337 336 336 336 336 336 336
353 354 353 354 354 353 353 353 353 353 352 352 352 352 352 352 351 351 351 351 351 350 349 349 349 348 349 351 351 351 351 351 351 352 352 353 353 353 353 353 354 354 354 354 353 355 357 358 358 358 358 357 357 356 355 353 351 348 345 344 343 341 340 340 339 339 339 340 340 340 339 338 337 338 338 337 338 337 337 337 337 336 335 334 334
353 353 353 353 354 353 353 353 353 353 352 352 352 352 352 351 351 351 351 351 351 351 351 350 349 349 349 350 350 350 351 350 350 352 352 353 353 353 353 353 354 355 354 353 352 352 355 356 356 357 358 358 357 357 356 356 354 352 348 345 344 342 341 341 341 340 340 341 341 341 341 340 338 338 338 338 339 338 337 337 337 336 336 334 334
353 353 353 353 353 353 353 353 352 352 352 352 352 352 352 352 351 352 351 351 351 351 350 351 351 350 350 350 350 350 350 351 351 352 352 353 353 353 353 353 353 354 354 353 353 353 354 354 354 356 358 358 357 357 356 356 355 354 353 350 347 344 343 342 342 342 342 342 342 342 342 341 340 339 338 338 339 339 339 338 338 338 338 337 337
353 353 353 353 353 353 353 353 352 353 352 352 352 352 352 352 352 352 351 351 351 351 351 351 351 351 351 350 350 350 350 351 351 352 352 352 352 352 353 353 353 353 354 353 353 353 354 354 353 354 357 357 356 356 356 356 355 355 354 353 351 349 347 344 344 343 343 342 342 343 343 342 342 341 340 339 339 339 339 339 340 339 339 338 338
353 353 353 353 353 353 353 353 353 353 353 352 352 352 352 352 352 351 352 351 351 351 351 351 351 351 351 351 351 351 350 350 351 351 352 352 352 352 353 353 354 354 354 354 354 354 354 354 354 355 356 355 355 355 355 355 355 354 354 353 353 351 349 347 345 344 342 342 342 342 343 342 342 343 342 340 339 339 339 340 340 340 339 339 338
353 353 353 353 353 353 353 352 352 352 352 352 352 352 352 352 352 351 351 351 351 351 351 351 351 351 352 351 351 351 350 350 351 351 352 352 352 353 353 353 354 354 354 354 354 354 354 355 355 355 355 354 354 354 355 355 354 354 353 353 353 351 350 348 346 344 342 342 342 341 341 341 342 342 343 342 340 339 340 339 340 340 340 340 339
352 353 353 353 353 353 352 353 352 352 352 352 352 352 352 352 352 351 351 351 351 351 351 351 352 352 352 351 351 352 351 351 351 352 352 352 353 353 353 353 354 354 355 354 354 355 355 355 355 355 355 354 354 354 355 355 354 354 353 352 352 351 350 348 347 345 343 342 341 341 341 341 341 341 341 341 340 340 340 340 340 340 340 340 340
352 353 352 353 353 353 353 353 353 352 352 352 352 352 352 352 352 352 351 351 351 351 351 351 352 352 352 352 352 352 353 352 352 352 352 352 353 353 353 353 354 354 354 354 355 355 355 355 355 355 355 355 355 354 355 354 355 354 353 352 352 351 350 349 347 346 344 343 342 342 342 341 341 341 341 341 340 341 341 340 340 340 340 339 339
352 352 352 353 352 353 353 352 352 352 352 352 352 352 352 352 352 351 351 352 352 352 352 352 352 352 352 352 352 352 353 353 353 352 352 352 352 353 353 353 354 354 354 354 355 355 355 355 355 355 355 355 355 354 355 355 355 354 354 354 352 351 350 349 348 347 346 344 344 343 343 343 343 342 341 342 341 341 341 340 339 340 340 339 339
352 352 352 353 352 353 353 353 352 352 352 352 352 352 352 352 352 352 352 352 352 352 352 352 352 352 352 353 353 353 353 353 352 353 352 353 353 353 353 353 353 354 354 354 354 354 355 355 355 355 355 355 355 355 355 355 355 355 354 354 354 353 352 350 349 348 347 345 345 344 344 343 344 343 343 342 342 342 341 340 340 340 339 339 340
352 352 352 352 352 352 353 353 353 352 352 352 352 352 352 352 352 352 352 352 352 352 352 352 352 351 352 353 353 353 353 352 352 353 353 353 353 353 354 353 354 353 353 353 354 354 354 355 355 355 355 355 355 355 355 355 355 355 355 355 355 355 354 353 351 350 349 347 346 346 345 345 344 345 344 343 343 342 342 341 341 340 339 340 340
352 353 352 352 352 352 353 353 353 353 353 353 353 352 353 352 353 353 352 352 353 352 352 352 352 352 352 352 352 352 353 353 353 353 353 353 353 354 354 354 353 353 353 353 353 354 355 354 355 355 355 355 355 355 356 355 355 356 355 355 355 356 356 355 354 353 352 350 349 348 348 347 346 347 346 346 345 344 343 342 341 340 340 340 340
354 353 353 353 353 353 353 353 353 353 354 353 354 354 353 353 353 353 353 353 352 353 353 352 352 352 352 351 351 351 351 352 352 353 353 353 354 354 354 354 354 354 353 354 354 354 355 355 355 355 355 355 356 356 356 356 355 356 356 356 356 355 356 356 355 355 354 352 351 351 350 350 349 349 349 348 347 345 344 344 342 341 340 340 340
355 354 354 354 354 354 354 354 354 354 354 354 354 354 354 354 354 353 353 353 353 353 353 353 353 352 352 351 351 351 351 351 350 351 351 352 353 354 354 354 354 354 354 354 354 355 355 355 355 356 355 356 356 355 356 356 356 356 356 356 356 356 356 355 355 355 355 354 353 353 353 353 352 351 351 350 348 348 347 345 343 342 340 340 340
356 356 355 355 355 355 355 355 354 354 355 354 354 354 354 354 354 354 354 353 354 353 353 354 353 353 352 352 351 351 351 351 350 350 350 350 351 352 353 354 354 354 354 354 355 354 355 355 356 355 355 355 356 356 356 356 356 356 356 356 356 356 356 355 355 355 355 355 355 355 355 355 354 354 353 351 349 348 346 344 343 342 340 340 340
357 356 357 357 356 356 355 355 356 356 355 355 355 355 355 355 354 354 354 354 354 354 353 353 353 353 353 353 352 352 351 351 351 351 350 350 350 351 352 353 353 353 353 353 353 353 354 354 355 355 355 355 356 356 356 356 357 356 356 356 356 356 356 356 356 355 356 355 356 356 355 355 355 355 354 352 350 347 344 343 343 342 341 340 340
357 357 358 357 357 357 357 357 356 356 357 356 356 356 355 355 355 355 354 354 354 354 354 353 354 353 353 353 353 352 352 352 351 351 351 351 350 351 351 351 352 352 352 352 353 353 353 353 354 354 355 355 355 355 356 357 356 356 356 356 356 356 356 356 356 355 355 355 355 355 355 354 354 354 354 354 352 346 342 343 344 343 341 341 341
357 358 358 358 358 358 357 358 358 357 357 357 357 357 356 356 356 356 355 355 355 355 355 354 354 354 353 353 353 353 352 352 352 351 352 351 351 351 350 351 351 351 352 352 352 352 353 353 353 354 354 354 355 355 356 356 357 357 356 356 355 355 356 356 356 355 355 355 355 355 355 354 354 354 354 354 352 348 346 347 346 343 342 341 341
357 358 358 358 359 359 358 359 358 358 358 358 358 357 358 357 357 357 356 356 356 356 356 355 355 354 354 354 353 353 352 353 352 352 352 352 351 351 350 351 351 351 351 352 352 352 352 353 353 353 354 354 354 354 355 356 356 356 356 355 355 356 356 356 356 356 354 354 354 354 354 353 353 353 352 352 351 350 350 350 349 346 343 342 342
356 357 358 358 359 359 360 359 360 359 359 358 359 358 358 358 358 358 358 357 357 357 356 356 355 355 355 355 354 353 353 353 352 353 352 352 351 351 351 351 351 351 351 351 352 352 352 352 353 353 353 353 354 354 356 355 356 357 356 356 355 355 355 356 355 355 354 353 352 352 352 352 352 352 352 352 351 350 350 350 350 348 346 344 343
357 357 358 359 359 360 360 360 360 360 360 360 359 359 359 359 359 359 358 357 357 357 357 356 356 355 355 355 354 354 353 353 353 352 352 352 352 351 351 351 351 351 352 352 352 352 352 353 353 353 354 355 355 356 356 356 357 357 356 357 355 351 350 352 352 350 350 350 350 350 350 349 349 348 348 348 348 349 348 348 349 348 348 347 346
357 357 358 359 360 361 361 361 361 361 361 361 360 360 360 360 359 359 359 358 358 357 357 356 356 355 355 354 354 354 353 353 353 352 353 352 352 352 352 351 351 351 351 352 352 352 353 353 354 355 355 356 356 357 357 357 358 357 357 359 355 345 342 345 347 347 347 347 346 346 346 346 346 346 346 346 345 345 346 347 347 348 348 348 347
361 361 359 358 359 360 361 362 363 363 363 362 362 362 361 361 360 360 358 358 358 357 357 357 356 356 355 354 355 354 354 354 353 353 353 352 353 352 352 353 353 352 352 353 353 354 354 354 355 356 356 357 357 357 357 357 359 358 358 358 352 343 340 343 345 346 346 344 344 345 345 345 345 344 343 343 342 342 343 343 344 345 346 346 346
364 365 364 362 360 359 359 361 362 362 363 363 362 363 362 361 361 360 359 359 358 357 357 357 356 356 355 355 355 354 354 354 354 353 353 353 353 353 353 353 353 354 353 354 354 354 355 355 356 356 356 357 357 357 358 358 358 357 356 354 349 344 342 342 343 345 345 344 345 345 343 341 341 341 340 339 338 338 339 339 339 340 341 341 342
363 364 366 366 364 361 359 359 360 362 362 363 363 363 362 362 361 360 359 359 358 358 357 357 356 355 355 355 355 355 354 354 354 354 353 354 354 354 354 354 354 354 355 355 355 355 354 355 355 355 356 356 356 357 356 356 355 354 352 349 344 341 341 341 340 341 340 340 341 341 339 338 337 336 336 336 335 335 336 337 337 337 337 338 339
363 363 364 366 366 365 361 359 359 360 361 361 362 362 362 362 361 360 359 358 358 357 356 356 356 355 355 355 355 355 355 355 355 355 355 354 355 354 354 354 355 355 355 356 356 356 354 353 353 354 354 354 354 354 354 353 350 347 343 338 335 336 339 340 340 339 338 337 338 337 337 336 334 333 333 333 333 332 333 334 336 335 336 337 337
362 363 365 366 366 364 361 359 358 359 360 361 361 361 361 361 360 360 359 358 358 358 357 357 356 355 356 355 355 356 355 355 355 356 356 356 356 356 356 356 357 357 357 357 357 355 353 350 349 350 351 351 351 350 348 345 341 336 333 331 330 332 334 336 337 339 339 338 337 336 334 333 332 332 331 331 331 330 329 331 333 333 333 334 334
362 363 366 367 365 362 360 360 359 359 359 358 358 358 359 360 360 360 360 359 359 359 358 358 358 358 357 357 357 357 356 357 357 358 358 358 358 357 358 359 359 359 359 358 355 351 348 347 348 348 348 346 344 342 338 335 332 329 329 329 329 329 330 330 332 333 333 332 332 331 330 330 330 329 329 329 328 328 328 328 329 329 330 331 331
361 363 365 367 365 362 361 362 360 358 357 354 353 353 355 358 360 360 360 360 361 360 360 360 360 359 359 358 359 359 359 359 360 360 359 359 359 359 360 361 361 361 360 356 351 348 348 347 345 344 342 339 336 334 331 329 328 328 328 328 327 327 328 328 329 328 328 328 328 328 328 328 327 327 328 327 327 327 327 327 327 328 329 329 329
361 362 364 366 365 363 363 362 358 354 351 351 353 352 353 355 358 360 361 361 362 362 362 362 362 362 361 361 361 360 359 359 360 361 361 360 361 360 360 360 360 358 355 352 349 346 344 341 338 336 335 333 332 331 329 329 328 327 328 328 327 327 327 327 326 326 326 326 326 325 325 326 325 325 325 325 325 325 325 325 326 326 327 328 328
359 360 362 364 365 364 362 358 353 348 347 350 353 354 354 351 350 352 357 360 361 363 363 363 364 364 363 363 362 360 359 359 359 360 360 359 358 358 356 355 353 350 348 347 344 340 337 336 334 332 332 331 330 330 329 329 329 328 327 327 327 327 326 326 325 325 324 324 324 324 324 324 324 324 324 324 324 324 324 325 325 325 326 327 327
357 359 361 364 363 361 357 353 349 347 347 350 352 355 354 350 341 338 343 350 355 358 360 361 363 363 362 360 359 358 357 355 353 352 351 350 350 350 348 347 345 343 343 340 337 333 332 332 332 331 330 330 329 329 328 328 328 328 327 327 327 326 325 325 324 324 323 323 323 323 323 323 323 323 323 323 323 323 323 323 324 324 324 325 325
355 358 361 362 360 356 353 350 348 347 349 352 354 353 351 347 341 337 338 340 342 344 347 349 352 353 352 350 349 347 346 343 342 341 339 338 339 340 339 338 336 336 336 334 331 331 331 330 331 330 329 329 328 328 328 328 327 327 327 326 325 325 324 324 324 323 323 323 323 323 322 322 322 322 322 322 322 322 322 322 323 323 323 323 324
353 356 358 359 356 353 349 348 347 347 348 350 350 347 343 342 340 339 337 335 332 331 332 335 338 340 339 337 337 336 335 334 335 334 333 333 333 334 334 334 332 332 332 331 331 331 331 331 330 330 329 328 328 328 327 327 327 326 326 325 325 324 324 323 323 323 322 323 322 322 322 321 321 321 321 321 321 321 321 322 322 322 321 322 322
353 353 354 354 352 349 346 345 345 346 345 344 342 340 339 339 337 335 333 331 329 328 328 330 333 334 334 334 334 334 333 333 333 332 332 332 332 331 332 333 332 332 332 332 332 331 331 330 330 329 329 328 327 327 327 327 326 325 325 325 324 323 323 323 322 322 322 322 322 321 321 320 320 319 320 321 320 320 320 321 321 321 320 320 321
350 349 349 349 349 346 344 343 342 342 341 339 338 337 336 335 334 333 332 331 331 330 330 331 332 333 333 333 333 333 333 333 332 331 331 331 330 330 331 332 332 332 332 332 331 331 331 330 329 328 329 328 327 327 326 326 325 325 325 324 324 323 323 322 321 321 322 322 321 320 320 319 318 318 319 319 319 319 319 319 320 320 320 320 320
347 345 344 344 344 343 341 340 339 338 337 337 336 336 335 334 333 332 332 331 331 330 330 330 330 331 331 330 331 331 331 331 330 330 330 330 330 331 331 331 331 331 331 330 330 330 330 330 329 329 328 327 326 326 326 325 325 325 324 324 323 322 322 321 321 321 321 321 321 320 319 318 317 317 317 318 318 317 318 318 318 319 319 319 320
341 341 341 341 340 340 339 337 337 337 337 336 335 334 333 332 331 329 328 327 327 327 329 329 329 330 330 330 330 331 330 330 329 329 328 328 329 329 329 329 329 329 330 330 330 330 330 330 329 328 327 327 326 325 325 325 324 324 323 323 322 321 321 321 320 320 321 321 320 320 318 318 317 317 317 317 316 316 317 317 317 318 319 319 319
338 338 339 339 338 337 337 337 337 336 335 334 332 331 330 329 328 327 326 326 325 325 326 327 327 328 330 330 331 331 329 328 327 327 326 326 326 326 327 327 327 328 329 329 329 329 329 327 326 325 325 325 325 325 325 324 323 323 322 321 320 320 320 320 319 319 320 320 320 319 318 317 317 317 317 316 316 316 316 317 316 317 318 318 318
337 337 336 336 337 336 336 336 336 334 333 331 330 329 328 327 326 325 325 325 323 322 322 322 322 324 328 329 330 330 328 326 324 324 323 323 323 323 324 325 326 327 328 328 327 327 326 325 324 324 324 324 324 323 323 323 322 322 322 321 320 320 319 320 319 319 319 319 319 318 318 317 316 316 316 316 315 316 317 316 316 316 317 317 317
335 334 334 334 334 334 334 333 332 331 330 329 328 327 326 325 324 323 323 322 321 320 319 319 319 322 325 327 328 328 327 324 323 322 321 321 321 321 322 323 324 325 325 326 325 324 323 323 323 323 324 324 323 323 322 322 322 322 322 321 320 320 320 320 319 318 319 319 318 318 318 317 317 316 316 315 315 316 316 316 316 316 316 315 315
333 332 332 332 331 330 330 329 328 327 327 326 325 325 324 323 322 321 320 319 318 318 317 316 317 319 322 324 326 326 323 321 320 319 318 317 318 319 319 319 319 320 321 322 322 321 321 320 320 320 321 321 321 322 322 321 321 321 321 321 320 319 320 320 320 319 319 318 318 318 318 317 317 317 316 315 315 315 315 315 315 316 315 315 314
331 330 329 329 328 327 327 326 325 325 324 324 323 322 321 320 319 319 319 317 317 316 315 315 315 317 318 320 322 321 319 317 316 315 314 314 314 315 315 316 317 318 320 320 320 320 319 319 318 318 318 318 318 319 319 319 319 319 319 319 319 319 319 320 320 320 320 320 320 320 319 317 317 317 317 316 316 315 314 314 315 315 315 314 314
328 327 326 325 324 324 324 323 323 322 321 321 320 319 318 318 317 317 316 315 314 314 313 312 313 314 314 315 316 315 313 312 312 311 311 310 311 311 313 314 315 316 317 318 318 318 318 317 316 316 316 316 316 316 316 316 315 316 316 316 317 317 317 318 319 320 320 320 320 321 320 318 317 317 317 317 317 316 315 314 314 314 314 314 313
325 324 323 322 321 321 320 320 319 319 318 317 316 315 315 315 314 314 313 312 311 311 310 310 310 310 310 310 310 309 309 309 308 308 307 307 308 308 309 310 311 312 313 314 314 315 315 314 314 314 314 314 315 314 314 314 314 314 314 314 314 315 316 317 318 319 320 320 321 321 321 320 320 319 318 318 318 317 317 315 314 314 314 314 313
322 321 320 319 319 318 318 317 316 316 315 314 313 313 312 312 311 311 310 310 309 308 307 307 307 306 306 306 306 306 306 306 305 305 305 305 305 305 305 305 306 307 308 309 309 310 310 310 310 310 311 312 312 313 313 313 313 313 313 313 314 314 315 316 317 318 319 320 320 321 321 322 322 322 320 320 319 318 317 317 316 315 315 314 314
320 319 318 318 317 316 315 315 314 313 313 312 311 310 310 309 309 309 308 308 307 306 306 305 305 304 304 303 303 303 303 303 303 303 303 302 302 302 302 302 303 304 306 307 306 306 306 307 307 307 308 308 308 309 309 310 311 312 312 313 313 314 315 316 316 317 318 319 320 320 321 321 322 322 322 322 321 319 317 317 317 317 316 315 314
318 317 316 315 315 314 313 312 311 311 310 309 309 308 308 307 307 306 306 305 305 305 304 304 303 303 302 302 302 302 301 301 301 301 301 301 302 302 303 303 303 304 305 305 304 304 304 304 304 304 304 304 304 305 305 306 307 308 309 310 311 313 314 315 316 317 318 318 319 320 320 320 320 321 322 322 321 320 318 317 317 317 317 315 314
315 315 314 313 312 311 311 310 309 308 308 307 307 306 305 305 304 304 304 304 303 303 303 302 302 301 301 301 301 301 301 301 301 301 302 302 302 302 302 302 302 303 303 302 301 300 300 300 300 300 300 300 301 301 301 301 302 303 305 306 308 310 312 314 315 316 317 317 318 318 318 319 319 320 320 320 320 320 319 319 318 318 317 317 315
312 312 311 310 309 308 308 308 307 307 306 306 305 303 303 302 302 302 302 302 302 301 301 300 300 300 300 300 299 300 300 300 300 300 300 300 300 300 299 299 299 299 299 298 297 297 296 296 296 296 296 296 296 297 297 297 298 299 301 302 305 307 309 311 313 315 316 316 317 317 317 318 318 319 319 319 319 319 319 319 319 318 318 317 315
Wind_Speed
39 38 38 37 36 36 37 38 38 38 36 36 36 36 35 34 34 33 33 33 32 32 32 32 33 32 32 31 30 30 30 29 28 28 27 26 25 24 23 23 23 23 22 22 22 22 23 24 24 23 22 23 23 22 21 21 21 22 21 21 21 20 19 17 15 18 27 28 27 27 25 22 22 22 22 22 22 22 23 23 24 25 26 27 27
39 39 38 37 37 37 37 38 38 37 36 36 36 35 35 34 34 33 32 33 32 33 33 33 33 32 32 31 31 31 31 30 29 29 28 28 26 26 25 25 25 24 24 24 25 25 25 26 26 25 24 24 24 24 23 23 22 23 24 23 23 23 21 21 19 18 24 29 28 28 28 25 25 25 25 24 24 24 24 25 25 25 26 27 28
40 39 38 38 38 37 37 37 37 37 36 36 36 36 35 34 33 33 32 32 32 33 34 34 33 33 32 32 31 31 31 30 30 30 29 29 28 27 27 26 26 26 26 27 27 27 27 28 28 27 26 26 26 26 25 25 24 25 26 26 26 26 25 24 23 21 23 28 28 28 28 27 26 27 26 25 25 25 26 26 25 26 27 27 28
40 39 38 38 37 37 36 36 37 37 37 37 37 37 36 34 33 33 33 32 32 33 34 33 33 33 33 33 32 32 31 31 30 30 30 29 29 28 28 27 27 28 28 28 28 28 29 30 30 29 27 27 28 28 28 28 27 27 27 28 28 29 28 27 27 26 25 26 29 29 27 26 27 27 25 25 26 26 26 27 27 28 29 29 30
38 39 38 37 37 36 37 36 36 37 38 38 38 38 36 34 33 33 33 33 33 33 33 33 33 33 34 34 34 34 33 32 31 31 31 30 29 29 29 29 29 29 29 30 30 30 30 31 32 29 27 28 30 30 30 29 29 28 28 29 29 30 30 30 30 29 28 28 32 32 30 28 29 29 27 26 26 27 28 28 28 29 30 31 32
37 38 37 37 37 37 37 37 37 38 38 38 38 37 36 35 34 34 33 34 33 33 33 33 33 34 35 35 35 35 34 33 33 32 32 31 30 30 30 30 30 30 31 31 31 31 32 32 32 30 29 31 32 32 31 29 29 29 29 29 29 29 30 30 30 29 30 31 32 33 33 32 31 31 31 28 27 28 29 30 31 31 32 33 33
37 37 37 37 36 37 38 38 38 38 38 38 38 37 36 35 35 34 34 34 33 33 33 33 34 35 36 36 36 36 35 34 34 33 32 32 31 31 32 31 31 32 32 32 32 33 33 33 33 32 32 33 34 33 32 30 30 30 30 30 29 28 28 29 29 28 28 30 31 32 32 31 30 31 32 29 27 28 30 31 33 33 33 34 35
37 37 37 37 37 38 39 39 39 39 39 38 38 37 37 36 36 35 34 34 34 35 34 34 34 34 35 36 36 36 35 35 35 34 33 33 33 33 33 32 32 32 33 33 34 34 34 34 34 34 34 34 34 34 33 31 30 31 31 30 28 28 28 28 27 26 27 28 29 30 30 29 27 28 29 27 26 30 32 32 33 34 34 33 34
37 37 36 37 38 39 39 38 38 38 37 37 38 37 37 36 36 35 35 35 35 35 35 34 34 34 35 36 36 35 35 35 36 35 35 34 34 34 33 33 33 33 33 33 34 35 35 35 35 35 34 35 35 35 34 33 32 33 33 30 28 28 28 28 27 26 26 26 27 28 27 25 26 27 28 27 29 32 33 29 30 33 32 31 32
37 36 36 37 38 38 38 37 37 37 37 37 37 37 36 36 36 36 36 36 35 35 35 34 34 35 35 35 35 35 35 36 37 37 36 36 35 34 33 33 33 33 33 34 35 36 35 35 35 34 35 35 35 35 35 35 35 36 36 33 30 28 28 28 28 28 27 26 27 28 25 25 26 27 29 31 32 32 31 27 28 29 27 26 28
36 36 36 37 37 36 36 36 35 36 37 37 36 36 36 35 35 36 36 36 36 35 34 34 35 36 35 35 35 35 36 37 37 37 37 37 36 34 33 33 33 33 34 34 35 36 35 35 35 34 35 36 36 36 36 37 37 37 38 37 35 33 31 29 29 29 28 28 28 27 25 27 29 29 30 32 32 31 30 27 26 26 23 21 20
35 36 36 35 35 35 35 35 34 35 36 36 36 36 35 35 35 35 36 36 36 35 35 35 36 36 35 35 35 35 36 38 38 38 38 37 36 35 34 33 32 33 34 34 35 35 34 34 34 34 35 35 35 35 35 36 37 37 38 38 38 38 38 36 34 32 30 30 29 28 28 29 32 31 31 32 32 31 29 26 25 25 24 22 20
34 35 34 34 35 35 35 34 34 35 36 36 36 35 35 35 36 36 36 36 36 36 36 37 37 36 36 36 36 37 37 37 38 38 38 38 37 36 36 35 34 34 34 34 35 35 34 34 34 34 36 35 34 34 35 35 36 36 37 37 38 39 40 40 40 38 37 34 31 32 32 31 34 36 34 33 32 29 27 26 25 26 25 23 24
33 34 34 34 35 35 35 35 36 36 36 37 36 36 36 37 37 37 36 36 35 36 36 37 38 38 37 38 38 37 38 39 39 38 39 39 38 37 37 36 35 35 35 35 35 35 35 34 34 35 36 35 34 34 34 34 35 35 35 36 38 39 40 40 40 40 41 39 38 41 40 38 40 43 41 37 34 33 31 28 23 21 19 20 27
32 33 33 34 35 35 35 36 36 36 37 37 36 37 37 37 37 37 36 36 36 37 37 38 38 38 38 38 38 38 40 40 39 39 39 38 37 36 36 36 36 36 37 37 37 37 36 34 34 36 37 35 35 34 34 34 34 33 33 34 37 39 40 39 38 39 39 40 42 45 46 45 46 47 46 40 38 39 35 27 20 15 15 22 34
32 33 34 34 35 36 36 36 36 37 37 36 36 36 36 37 37 37 36 36 36 37 37 37 37 38 38 38 37 38 40 40 39 40 40 38 36 35 35 36 37 37 38 38 38 38 37 35 35 37 37 37 36 36 35 34 33 31 30 31 34 38 39 38 37 37 37 39 41 44 45 45 46 48 47 42 41 38 27 23 23 17 18 27 35
32 33 33 34 35 36 36 37 37 37 36 35 35 36 36 37 38 37 36 35 35 36 36 36 37 37 37 37 37 38 39 39 39 40 39 37 36 35 35 36 36 37 38 38 39 38 38 37 37 37 38 38 37 37 36 34 33 31 30 30 33 36 38 37 36 38 38 39 41 42 43 44 44 47 46 43 44 36 21 24 28 19 18 24 26
31 32 33 34 35 37 37 38 37 36 36 35 35 36 36 37 38 37 36 36 37 37 37 36 36 37 37 37 37 38 39 38 37 38 38 37 36 35 35 36 36 37 37 38 38 38 38 38 37 37 38 39 39 38 36 35 34 33 31 30 31 34 37 37 38 38 36 37 39 40 41 42 42 44 43 42 43 36 27 32 33 21 19 25 25
31 33 34 35 36 37 37 38 38 36 36 36 37 38 38 38 38 37 36 36 37 37 36 35 35 36 37 37 37 37 37 37 36 37 37 36 36 35 35 35 35 36 36 36 37 38 38 38 37 38 39 40 40 40 38 37 36 35 32 29 28 32 37 39 39 37 32 31 32 34 36 38 38 39 39 37 36 33 31 36 35 29 29 32 31
34 35 35 35 35 36 36 37 37 37 37 38 38 38 38 37 36 35 35 35 35 34 34 34 34 35 35 35 35 36 36 36 37 38 37 36 36 35 35 35 36 35 35 35 35 36 36 35 35 37 38 39 39 39 39 39 38 37 34 29 28 32 37 39 39 38 34 31 30 32 35 37 35 32 32 32 30 29 30 33 34 34 35 36 36
34 34 33 32 33 34 35 36 37 37 38 39 38 37 36 36 34 34 34 34 33 32 32 32 32 33 33 33 33 34 34 35 37 37 36 36 35 35 35 37 37 35 34 34 35 35 34 33 34 36 37 37 37 37 37 37 38 38 36 32 31 32 35 41 42 40 38 35 33 34 35 34 33 32 32 33 31 28 27 28 31 34 35 37 38
32 32 32 31 31 33 34 35 36 37 37 37 35 35 35 35 34 33 33 32 31 31 31 30 30 30 30 30 31 31 32 33 35 35 35 35 35 35 36 38 37 36 34 33 33 34 34 34 35 35 35 35 34 33 33 32 32 33 33 34 32 27 27 38 43 39 39 38 34 34 35 33 34 34 33 34 35 31 28 27 29 33 35 39 40
28 29 30 30 31 32 33 34 35 36 36 36 35 35 35 34 33 32 31 31 30 30 30 29 27 27 27 28 29 30 30 31 32 34 34 34 34 35 36 37 37 36 35 34 34 35 34 34 33 32 31 30 29 28 27 25 26 26 24 26 25 18 18 25 29 29 34 35 32 33 34 32 31 32 30 31 32 30 26 25 28 31 34 37 41
23 25 28 30 31 32 33 34 36 37 37 36 35 34 33 32 31 31 31 29 28 27 27 26 25 25 25 26 27 28 30 31 32 33 33 33 33 34 34 35 35 36 37 37 36 34 31 29 28 27 26 25 23 22 21 19 19 18 16 15 13 6 8 12 11 17 24 26 26 28 29 27 27 27 28 29 31 29 27 26 28 29 31 34 37
18 19 23 28 33 34 34 35 36 38 38 37 35 34 32 30 29 29 29 28 27 25 25 24 24 24 24 24 25 27 29 30 31 31 31 31 31 32 32 32 32 33 36 37 35 32 29 27 25 24 22 21 19 17 15 14 14 14 13 11 7 3 13 19 9 12 19 20 20 23 23 24 25 26 28 30 32 32 30 29 29 29 29 30 33
13 13 14 19 26 32 33 33 34 35 36 34 33 34 33 31 29 28 27 27 26 25 24 23 22 22 22 23 24 26 28 29 30 30 29 29 30 30 30 30 30 31 34 36 35 33 30 27 25 22 20 18 16 14 14 14 13 12 10 6 4 7 13 22 16 9 11 14 17 19 21 24 26 28 29 29 30 30 29 29 31 32 31 31 31
10 10 9 10 15 22 29 31 30 29 29 28 28 28 28 28 27 26 25 25 24 23 23 22 21 21 22 23 25 26 26 27 28 28 28 28 28 29 29 29 30 31 33 35 35 35 34 30 26 23 20 18 17 16 14 12 8 5 2 2 5 8 9 14 17 14 11 13 17 20 23 25 26 27 27 27 28 30 30 29 29 31 32 31 31
7 7 7 9 11 15 21 25 25 23 22 21 21 20 21 22 24 25 26 26 25 24 23 23 23 24 24 24 24 23 23 25 27 27 27 28 28 28 28 28 29 30 31 32 32 33 31 28 25 22 20 17 14 10 7 3 1 3 4 5 7 8 8 8 9 11 12 13 15 18 21 22 23 24 25 26 29 31 32 31 29 29 31 30 29
5 3 3 6 9 12 16 19 20 20 19 18 17 15 15 17 20 21 23 25 25 25 25 25 27 27 26 25 23 22 22 25 27 27 27 26 25 26 26 25 26 27 28 28 27 24 20 16 14 12 10 8 7 6 6 5 6 6 5 6 7 8 8 7 5 4 5 7 10 12 15 17 19 20 22 24 27 30 31 32 32 31 31 30 30
5 3 3 4 7 11 13 15 18 20 20 19 17 13 11 11 14 16 17 18 20 22 23 24 25 25 25 24 24 23 24 24 24 23 23 23 23 23 23 22 22 23 22 21 18 15 12 10 9 10 11 11 10 9 8 7 6 6 6 7 8 9 8 6 5 3 1 3 5 7 10 12 14 16 18 20 23 26 28 30 31 30 29 30 32
7 6 5 7 10 13 16 18 20 20 20 20 20 18 15 12 11 11 12 13 15 17 19 20 21 21 21 22 23 22 21 20 18 17 18 19 20 19 19 18 16 14 13 13 12 12 13 14 14 13 13 12 11 9 8 6 6 7 7 7 8 8 7 7 7 6 5 5 5 6 8 9 11 14 16 18 21 23 24 26 26 26 27 28 30
9 7 7 10 14 17 19 21 21 20 20 20 21 22 21 19 16 12 10 11 13 15 16 17 17 16 17 18 18 17 16 14 12 12 12 14 14 13 11 10 9 9 10 11 13 14 14 15 15 13 13 12 10 8 6 6 7 7 6 6 7 8 9 9 10 9 8 8 7 8 9 10 11 13 15 18 21 23 23 23 23 24 25 27 28
10 9 9 13 16 18 20 21 20 20 22 23 23 23 23 22 20 19 16 13 11 10 10 10 10 12 13 13 12 12 10 10 9 10 11 12 13 14 14 15 16 15 14 15 18 17 15 14 14 12 10 9 7 7 7 7 7 7 6 6 7 9 10 11 11 10 9 8 8 9 11 11 12 15 17 19 21 22 22 22 22 23 25 27 28
12 10 11 14 17 18 19 19 20 21 23 25 25 22 20 21 23 23 20 19 18 18 17 15 12 12 13 13 13 15 16 17 18 18 17 17 17 17 19 20 18 15 14 16 18 17 15 14 12 9 7 5 5 6 7 6 6 6 7 8 9 9 10 10 11 11 12 13 13 13 12 12 13 16 18 20 21 22 23 24 24 25 27 28 29
13 12 12 15 16 17 17 19 21 22 23 23 23 20 19 21 23 22 21 22 23 24 25 26 24 23 23 23 23 23 23 23 23 21 20 19 17 15 17 20 20 18 17 17 17 15 14 12 11 8 6 5 5 5 6 6 7 7 8 9 9 9 10 12 13 15 16 17 17 18 18 17 17 17 17 18 21 23 25 26 26 27 29 29 30
15 15 15 16 17 18 19 19 21 22 22 22 21 21 22 23 24 24 27 30 28 25 25 28 29 29 28 26 24 23 24 25 25 24 23 20 17 15 18 21 22 20 19 18 16 15 13 11 9 7 6 5 5 6 6 8 8 8 8 8 9 9 11 13 14 15 17 17 17 19 21 21 22 20 18 18 20 23 24 25 26 26 28 29 29
17 17 17 18 19 21 21 21 21 22 22 23 24 25 25 24 23 24 27 28 28 26 24 24 27 29 28 26 26 26 26 26 24 22 20 18 16 17 19 21 20 19 18 16 14 13 12 11 8 7 6 6 6 7 8 8 8 8 8 8 9 10 11 12 12 14 15 15 17 19 20 21 22 22 20 19 20 21 22 24 25 26 27 29 29
18 19 19 20 22 23 24 24 23 24 24 25 25 26 27 27 26 25 24 23 26 27 25 23 24 26 25 25 26 26 25 24 23 22 21 20 20 20 20 19 18 17 16 14 13 12 12 10 9 8 8 8 8 8 8 8 7 7 8 8 8 10 11 11 12 12 13 14 16 17 18 19 21 22 21 21 22 22 21 22 23 25 26 27 27
20 20 21 22 23 25 26 26 26 26 27 27 27 28 29 29 29 29 27 26 27 28 28 26 24 21 20 21 23 24 24 24 24 25 25 25 24 23 21 20 19 17 16 14 13 12 11 9 9 9 10 9 9 9 9 8 7 8 8 9 9 11 11 12 13 13 13 13 14 15 16 18 19 19 20 21 23 23 22 21 21 23 24 24 25
22 22 23 23 23 24 26 27 26 26 27 28 29 30 30 29 29 30 32 31 29 28 29 28 24 20 19 20 21 23 25 24 22 22 23 23 22 21 21 19 18 17 16 15 15 14 12 10 10 10 10 9 9 9 9 8 8 8 9 10 11 12 12 14 15 15 14 13 13 14 16 18 18 18 18 20 21 22 22 21 21 21 21 22 22
24 24 24 24 24 24 25 25 25 26 28 31 32 32 30 29 29 31 31 30 28 27 27 27 25 23 22 21 21 23 25 24 22 21 21 20 20 20 19 18 17 16 15 14 15 14 13 11 10 9 9 8 8 8 8 8 9 9 9 11 12 12 13 15 15 15 14 13 13 14 16 18 18 17 18 18 19 20 20 21 21 21 21 21 21
24 24 23 23 23 24 24 24 25 27 30 32 33 31 30 29 30 29 28 28 27 27 27 26 24 23 22 21 20 22 23 23 22 21 20 19 19 19 18 18 17 16 15 13 13 13 12 11 10 10 9 8 7 7 7 8 9 9 9 10 11 12 13 14 14 13 13 13 14 15 16 17 17 17 17 17 17 17 18 20 21 21 21 21 21
25 25 25 25 24 25 26 27 27 28 28 28 29 30 31 30 28 27 26 26 25 25 25 23 22 23 23 21 20 21 22 23 22 20 19 19 19 18 18 18 17 17 15 14 14 13 13 14 13 11 10 9 8 7 7 8 8 8 8 9 10 10 11 12 11 11 12 13 14 15 15 15 15 16 16 15 15 16 16 17 19 20 19 19 20
27 28 28 27 26 26 27 28 26 25 25 25 25 27 29 28 25 23 23 23 21 21 21 20 20 22 22 20 20 21 21 21 20 19 19 19 19 19 19 19 18 17 16 14 14 14 14 14 14 13 11 10 9 8 7 7 8 8 9 9 9 9 10 10 10 11 12 13 14 15 15 14 14 15 15 14 14 14 15 15 16 17 17 17 19
28 29 29 28 27 27 27 27 24 23 25 26 24 22 23 23 20 19 19 19 19 20 20 19 18 19 20 20 21 21 21 20 19 19 18 19 20 21 20 20 19 18 17 16 14 14 14 14 15 14 13 12 12 11 10 9 9 9 9 9 10 10 11 11 11 11 11 12 14 15 15 14 13 13 14 13 12 12 12 12 12 13 13 15 16
29 30 30 29 28 27 28 28 28 28 30 30 26 21 19 20 20 18 18 19 19 19 19 20 19 19 19 20 20 20 20 19 19 18 19 20 21 22 22 22 22 21 20 18 17 16 16 16 16 16 15 14 13 13 12 11 11 11 11 11 11 11 11 11 12 12 12 13 13 14 15 15 14 13 13 13 12 11 9 7 8 9 10 12 14
29 30 30 29 28 27 26 27 29 30 31 29 26 21 20 20 20 20 20 20 20 19 20 21 21 21 20 20 19 19 19 19 19 19 20 20 21 22 22 23 23 23 22 21 21 20 20 20 19 19 18 17 16 15 14 13 12 12 12 12 12 12 12 13 13 13 13 14 15 15 16 16 16 15 14 13 13 12 9 5 4 4 5 7 10
30 31 31 30 30 29 28 28 28 28 27 26 24 23 23 23 24 24 24 23 23 24 24 23 23 22 23 23 22 22 22 21 20 20 20 20 20 21 21 22 23 23 22 22 22 22 22 21 21 21 21 20 20 19 18 17 16 15 14 13 13 13 13 14 14 14 15 16 16 16 17 17 16 15 15 14 13 12 10 8 7 4 1 3 5
29 31 31 30 30 30 29 29 29 28 28 28 28 27 28 29 29 28 28 27 27 26 25 24 24 24 25 24 24 24 23 23 22 21 21 21 21 21 20 21 21 21 20 20 20 20 20 20 20 20 21 21 21 21 21 21 20 20 19 18 17 15 14 14 14 15 16 16 17 17 17 17 16 14 14 13 13 13 12 11 10 8 4 3 3
30 32 32 32 32 32 32 33 34 34 33 34 33 31 30 30 30 29 29 29 28 28 27 26 26 26 25 25 24 24 24 23 23 22 21 21 21 20 20 20 20 20 19 19 19 19 19 19 19 19 20 20 20 21 21 22 22 22 22 21 20 19 17 15 14 14 15 16 16 16 16 17 16 14 13 13 13 14 14 14 13 12 9 7 6
33 35 35 36 35 35 35 37 37 36 36 36 36 34 33 33 32 31 31 30 29 29 28 27 27 26 26 25 25 24 23 23 22 21 21 21 20 20 19 19 19 19 18 18 18 18 19 19 19 19 20 20 20 21 21 22 22 21 21 21 21 20 20 19 17 15 14 15 15 15 15 15 15 14 13 13 13 13 14 14 14 13 12 11 10
Wind_Direction
200 202 203 204 206 206 207 209 210 212 213 214 216 219 221 222 224 227 229 231 232 233 235 237 238 239 238 238 238 239 242 244 247 248 247 248 249 249 251 252 253 256 257 258 258 258 259 261 264 266 266 267 267 267 264 261 260 259 261 263 260 256 252 243 241 263 275 278 279 283 287 288 286 285 283 281 279 277 276 276 275 273 272 271 271
199 201 202 203 206 207 208 209 210 211 212 214 217 219 220 222 224 225 227 230 232 233 235 236 237 238 238 238 239 240 242 244 246 247 246 247 248 249 250 251 253 254 256 257 258 258 259 260 262 265 266 266 267 267 266 263 261 260 259 260 260 257 253 250 246 253 269 275 277 280 283 282 280 282 282 282 283 281 279 277 277 276 275 274 274
199 200 201 203 205 206 208 209 209 210 211 214 216 218 220 222 223 224 226 229 231 233 234 235 236 237 238 239 240 241 243 244 245 245 245 246 247 248 250 250 251 252 253 256 258 258 258 259 261 262 263 264 266 266 265 264 261 260 259 258 258 258 257 255 252 250 260 272 277 278 280 279 278 280 281 282 283 280 278 278 278 276 275 274 273
198 199 200 203 204 205 206 208 209 209 211 213 216 218 220 221 222 224 226 227 230 233 234 234 235 235 237 239 241 242 243 243 243 244 245 246 248 249 250 251 251 252 254 256 257 258 257 258 260 261 260 262 264 264 263 262 260 259 258 258 258 259 259 258 257 256 260 270 275 276 278 279 279 280 280 279 278 277 277 278 277 276 276 274 273
196 198 199 201 202 204 205 207 208 209 211 213 216 218 219 219 221 222 224 226 229 231 232 233 233 234 236 238 241 243 244 244 242 243 245 246 248 249 250 251 253 254 255 257 257 257 257 258 260 260 260 261 263 263 262 261 260 259 259 259 259 259 260 259 259 260 259 264 271 275 278 279 279 280 279 277 277 277 276 275 275 275 275 274 273
195 197 198 199 201 203 205 206 208 209 211 213 215 217 217 218 219 221 223 224 227 229 230 231 232 233 236 238 240 242 245 245 243 243 244 246 248 250 251 251 252 254 256 257 258 258 257 259 260 259 259 260 262 262 262 261 261 261 260 261 261 260 260 259 259 259 259 261 267 272 274 275 276 278 279 278 277 276 276 276 274 272 272 272 272
194 196 197 199 201 203 205 207 208 210 212 213 215 216 217 218 219 220 222 223 225 227 228 230 232 234 236 238 239 242 243 244 243 243 243 245 246 248 249 250 251 253 254 256 258 258 258 259 259 259 258 260 262 262 262 262 262 263 263 263 263 262 261 261 259 257 257 259 263 267 271 272 273 274 276 277 275 273 273 272 272 271 271 270 271
193 195 197 199 201 204 206 208 209 210 212 213 215 216 217 218 219 220 221 222 224 226 227 229 231 234 236 238 240 241 241 242 242 241 242 243 245 246 247 248 249 251 253 255 257 258 259 259 259 259 259 260 262 263 264 263 263 264 265 264 263 262 262 263 261 258 257 258 260 264 268 270 271 272 273 271 267 267 267 266 267 271 272 271 272
193 195 196 199 202 205 206 207 209 210 212 213 214 215 216 217 218 219 221 222 225 226 228 229 231 233 235 237 239 240 239 240 240 240 241 241 242 244 245 246 248 250 252 254 256 257 258 259 259 259 260 261 264 265 266 267 266 266 267 265 262 261 261 261 260 259 258 257 259 263 265 266 266 267 267 263 261 265 268 265 264 269 273 274 274
193 194 197 201 203 204 206 207 208 210 211 213 214 214 215 216 217 218 220 222 224 226 227 229 230 233 235 236 238 238 239 240 241 241 242 242 242 242 242 244 246 248 250 253 256 257 257 258 259 259 260 262 264 265 266 267 267 268 269 267 262 260 259 258 258 258 257 256 258 262 263 264 264 264 264 266 267 268 267 264 263 269 274 276 276
192 195 198 201 203 203 205 206 207 209 211 212 214 214 215 215 216 218 220 222 224 225 226 228 230 232 234 236 237 237 238 241 242 242 243 243 242 241 241 244 245 247 249 251 254 257 257 258 259 259 260 261 263 264 265 266 267 268 270 269 266 262 258 256 256 258 257 256 258 260 260 264 268 267 267 270 271 269 266 263 262 266 268 269 276
192 196 199 200 201 203 204 205 206 208 210 212 213 214 215 215 217 218 219 221 223 224 225 227 229 232 233 235 237 237 239 241 242 243 244 244 243 242 242 244 245 247 249 251 254 256 257 259 260 260 261 261 262 263 264 266 267 268 269 270 269 266 262 258 257 257 257 258 260 261 260 264 270 270 268 270 271 270 268 264 260 260 261 262 267
192 195 198 199 200 202 203 204 206 208 210 212 213 214 214 215 217 218 220 221 222 223 224 227 229 231 232 234 236 238 240 242 243 243 244 244 244 243 243 243 244 246 249 251 253 255 256 258 259 260 261 262 262 263 263 265 267 268 269 270 269 268 266 263 260 259 258 259 262 263 263 264 267 268 269 270 270 269 266 261 258 257 257 261 267
191 195 197 198 200 201 202 203 206 208 210 211 212 213 214 215 217 219 220 221 222 223 225 226 228 230 231 233 235 237 240 241 243 243 244 245 245 244 244 244 244 246 248 251 252 254 255 256 257 260 262 261 261 261 262 263 264 265 267 268 269 270 269 267 264 262 260 258 258 262 265 265 265 268 271 269 267 266 264 261 261 261 263 270 274
190 194 196 198 199 200 201 203 206 209 210 211 212 213 214 216 217 219 220 221 222 224 225 227 228 230 231 233 234 237 239 241 242 243 244 245 245 244 244 244 244 246 248 250 251 253 254 254 256 259 261 261 261 261 261 262 262 262 263 266 269 272 271 269 269 268 266 263 261 264 268 268 267 269 270 268 266 267 266 268 273 276 275 274 272
190 194 196 198 199 200 201 203 206 209 210 210 211 212 214 216 218 219 220 221 223 225 226 227 229 231 232 232 234 237 239 241 241 243 244 245 244 243 243 243 243 245 248 250 251 253 254 253 255 257 259 261 262 262 262 262 261 260 260 263 267 270 271 271 272 271 271 271 269 269 271 272 273 274 272 269 267 268 269 274 274 266 257 261 264
192 195 197 198 199 201 202 204 207 209 209 209 211 213 214 217 218 219 219 220 222 225 227 228 230 232 233 233 233 236 240 241 242 243 244 244 242 242 241 241 242 244 247 250 252 253 254 254 254 256 259 261 262 263 263 262 260 257 257 259 263 267 270 272 273 272 272 273 274 275 275 276 278 279 278 275 271 268 266 269 267 253 242 251 256
194 196 198 200 201 202 204 205 207 208 209 209 211 214 215 217 219 219 218 220 222 224 227 229 230 232 233 234 234 236 240 242 243 244 245 244 242 241 241 241 242 244 247 251 252 254 255 255 255 255 258 261 263 264 263 261 259 256 254 255 259 264 269 272 273 272 272 273 276 277 278 278 279 281 282 282 277 271 262 262 260 247 242 251 254
196 198 201 202 203 204 205 206 208 208 209 211 213 214 216 218 219 219 218 220 223 225 226 228 230 232 234 235 236 237 240 243 244 245 245 244 242 241 240 240 241 244 247 250 253 255 256 256 257 257 259 262 264 264 264 261 259 257 255 253 254 260 268 272 273 273 272 272 274 277 278 279 281 283 285 286 283 278 270 267 262 247 242 251 255
200 202 204 204 205 206 206 207 209 209 210 213 214 215 217 218 218 218 218 220 223 225 226 227 229 232 234 235 236 237 238 241 243 245 245 244 243 241 238 238 240 243 245 248 251 255 256 257 258 260 262 265 266 267 266 263 260 259 255 250 250 258 268 273 273 274 275 274 274 276 279 281 283 283 286 288 285 279 275 274 268 254 244 247 252
203 205 206 206 206 207 208 209 210 211 213 215 216 216 217 218 218 217 217 219 222 224 225 226 228 232 234 235 236 237 237 239 242 244 244 244 243 241 238 238 240 242 244 246 249 253 256 257 260 263 266 269 270 271 271 268 266 263 258 254 253 255 265 273 275 276 277 278 279 279 280 282 283 282 282 283 281 276 272 271 269 262 251 246 248
203 206 207 208 209 209 210 211 212 213 215 215 215 216 218 218 218 217 217 218 220 222 224 225 227 231 234 235 236 238 238 239 242 243 244 243 243 241 240 241 242 242 242 245 248 251 255 258 262 266 269 271 272 274 274 275 273 268 266 267 261 248 252 268 276 278 278 278 280 281 281 281 281 282 282 281 281 279 275 270 267 265 259 253 250
200 204 206 209 211 212 212 213 213 214 216 216 215 217 218 218 217 217 216 216 218 220 223 224 225 229 233 235 236 238 239 240 241 243 244 244 243 243 243 245 245 243 242 244 248 252 256 259 262 267 269 270 272 274 274 276 276 275 277 279 271 251 238 255 268 276 278 277 276 276 279 280 281 283 285 287 289 288 282 275 270 267 264 260 257
190 199 204 208 213 215 215 215 215 216 218 216 215 216 217 217 216 216 215 215 216 218 221 222 222 226 230 233 236 237 238 240 242 243 244 245 244 245 247 247 247 245 244 246 249 252 255 258 260 264 266 268 270 272 274 278 280 282 288 291 290 272 192 197 236 269 272 274 274 273 278 284 286 289 295 298 301 299 294 289 283 276 272 268 264
173 185 196 204 211 215 216 216 216 217 218 216 214 214 215 214 214 214 214 213 213 216 218 219 219 222 226 230 234 237 238 239 241 242 243 245 246 247 249 250 250 248 247 248 250 250 252 254 257 260 263 266 270 273 277 282 283 288 295 301 324 52 142 156 181 269 266 264 270 274 281 293 297 301 305 306 306 305 303 301 298 293 288 282 276
161 170 184 198 207 211 214 215 216 217 217 216 214 214 214 212 211 212 211 210 211 214 215 217 217 219 223 228 232 236 238 238 240 242 242 243 245 246 248 249 250 249 249 249 249 248 249 251 254 256 259 262 268 272 278 284 286 292 302 311 15 75 138 163 179 228 257 266 277 283 293 302 305 306 309 309 309 308 309 309 307 304 301 296 291
157 167 177 191 201 207 211 213 216 217 217 216 215 216 215 212 210 209 207 207 209 210 212 214 214 214 219 225 229 234 236 237 238 240 241 241 243 244 245 246 247 246 247 249 250 249 248 249 250 254 258 263 270 275 278 283 287 293 330 61 92 93 125 167 188 207 237 269 285 293 300 305 308 311 315 316 314 312 313 313 310 306 305 303 297
150 160 174 180 185 197 205 209 210 211 212 213 212 213 212 210 207 207 208 207 206 206 208 211 213 215 218 221 225 228 231 234 237 238 240 241 242 242 243 243 244 245 246 249 251 250 249 250 253 258 262 263 263 262 256 250 169 133 118 103 108 111 114 141 181 207 230 257 277 290 299 306 310 314 316 315 313 312 314 314 310 305 305 305 299
143 149 165 166 171 182 191 194 195 194 193 194 195 197 202 204 203 205 209 211 210 210 210 213 217 221 221 221 222 223 226 234 240 241 241 241 241 242 243 244 245 246 247 247 247 246 246 248 247 243 234 216 194 166 147 139 130 120 107 91 84 86 93 105 128 178 226 256 274 286 297 303 306 308 310 309 309 310 311 311 308 305 304 302 297
129 127 129 143 161 170 170 171 175 176 174 173 169 164 168 182 192 197 203 208 212 215 218 221 225 227 225 224 225 226 229 237 242 242 238 237 237 238 241 244 245 246 246 243 238 231 220 203 187 172 158 147 139 131 128 132 123 95 75 70 67 65 72 78 70 51 1 307 297 298 303 303 304 307 308 306 305 306 307 306 304 303 302 300 296
118 114 126 148 160 163 160 160 161 160 161 162 159 150 138 135 150 172 185 194 201 209 215 221 226 228 227 227 226 227 230 236 241 239 234 231 231 231 234 237 237 236 232 220 198 181 167 150 136 133 133 127 122 123 124 115 92 73 67 68 63 56 56 49 34 22 14 0 341 323 317 313 312 313 311 307 307 307 306 306 305 303 302 301 299
107 107 125 147 158 159 157 156 153 149 150 153 155 150 139 124 113 118 144 172 187 197 204 209 212 215 219 223 224 223 223 224 226 224 218 214 211 206 202 193 171 156 160 158 140 128 125 122 117 117 121 116 111 111 106 87 72 64 64 67 56 44 41 35 27 22 17 6 353 343 339 335 329 325 321 318 317 316 313 312 313 311 309 307 304
96 105 125 141 150 152 151 149 147 147 148 150 152 151 146 135 120 108 107 118 137 154 167 179 190 192 194 200 205 202 193 182 170 162 160 160 158 152 140 128 123 127 131 125 113 106 106 105 101 99 102 103 103 97 83 75 73 68 64 61 51 42 39 34 27 23 15 7 1 355 351 347 342 338 334 329 325 324 323 322 321 320 318 315 311
90 100 123 137 141 143 144 145 146 147 150 154 154 151 146 140 133 123 113 105 99 97 100 108 121 134 138 140 141 138 135 130 125 122 121 119 121 125 124 119 116 118 120 116 112 110 111 108 103 100 95 85 81 81 76 75 77 73 65 59 50 44 40 34 28 23 17 14 11 5 358 355 352 346 341 337 334 333 333 333 331 329 327 324 320
94 100 118 132 134 134 137 141 144 145 147 149 147 141 133 132 131 126 117 109 101 93 92 96 103 108 109 110 113 116 117 116 115 115 114 112 113 118 116 110 105 102 102 103 104 104 106 107 105 104 100 83 72 75 77 76 74 68 62 57 51 44 37 31 26 21 18 16 14 10 6 4 360 352 344 340 341 342 340 339 336 333 331 330 326
100 105 115 126 130 132 133 136 140 142 141 138 133 127 123 122 120 115 111 108 103 98 95 96 99 102 102 102 105 107 107 106 105 105 104 102 101 102 100 98 96 95 93 92 91 92 92 92 88 84 82 79 72 70 72 73 72 69 65 60 53 43 35 29 25 20 17 17 17 15 13 8 2 355 349 345 346 346 344 342 340 336 334 333 329
106 109 116 123 128 129 129 129 130 131 128 123 119 115 110 107 104 102 102 102 101 100 98 97 98 98 96 96 98 99 99 99 97 95 93 92 92 95 98 97 95 93 90 87 86 85 81 76 71 69 70 71 70 70 73 74 74 73 69 62 52 40 32 27 22 18 16 18 19 17 13 8 2 358 355 351 349 348 345 343 343 341 339 338 336
109 113 117 122 125 124 122 120 119 118 114 110 108 107 104 102 100 97 95 96 99 100 97 94 93 94 94 96 98 100 100 97 93 88 87 90 94 96 97 95 91 87 86 84 82 82 80 71 60 54 58 63 69 72 73 71 68 65 59 51 42 34 27 22 19 19 20 21 19 15 9 4 2 3 2 358 353 351 348 347 348 348 346 345 345
106 112 116 119 120 120 119 117 114 111 108 104 103 103 102 102 102 99 94 91 91 93 93 91 88 89 95 100 103 104 99 91 86 85 84 85 88 90 90 89 87 84 83 81 78 78 78 71 60 57 62 67 72 74 69 61 58 53 44 39 37 35 32 28 24 24 24 20 15 11 6 1 0 3 5 3 358 356 354 353 354 355 353 352 351
106 110 113 115 115 117 117 116 113 111 109 107 105 104 103 101 101 100 98 94 90 90 92 92 88 90 98 102 104 104 97 86 83 84 82 81 81 82 82 83 83 82 82 80 77 75 75 73 70 69 68 68 68 66 59 51 50 49 44 42 43 43 41 36 30 28 27 21 14 11 9 6 4 4 4 4 3 3 2 2 3 4 3 1 358
111 110 109 111 113 114 113 111 110 110 111 111 109 107 104 103 103 103 102 100 96 92 90 88 86 91 100 104 106 105 98 90 86 85 82 80 80 79 78 79 80 80 80 79 78 78 78 78 79 77 74 69 65 59 50 42 42 46 47 47 47 46 43 38 32 28 27 23 19 16 13 11 10 9 7 6 9 11 13 13 14 15 15 13 9
114 111 108 108 109 109 107 106 107 108 109 110 111 110 108 108 106 105 103 102 101 98 94 91 88 92 99 104 108 106 99 93 89 84 80 80 80 79 79 78 77 76 75 74 75 76 74 72 71 69 67 64 61 57 49 40 37 39 41 43 43 41 38 35 31 25 22 22 20 15 10 9 11 14 13 12 14 17 19 21 23 26 27 25 22
116 113 112 110 108 107 107 108 107 107 107 108 109 110 110 109 108 106 105 104 102 100 98 94 92 94 97 102 106 104 97 91 88 83 79 79 80 81 82 80 77 75 72 69 67 67 65 62 60 57 54 50 48 49 49 45 40 36 35 38 39 35 30 27 22 14 11 12 10 6 3 3 6 10 13 16 19 22 24 26 30 33 34 31 28
118 115 114 111 109 108 110 110 108 106 107 108 107 108 109 108 106 106 105 103 102 100 98 97 96 97 97 98 100 97 91 86 85 83 81 81 82 82 82 79 77 74 71 65 59 57 56 54 52 51 49 44 39 38 41 44 43 37 30 28 27 23 18 13 8 3 358 355 356 356 357 358 0 4 8 13 19 23 26 29 34 38 39 35 33
119 117 114 113 111 111 112 113 111 110 110 109 106 105 105 105 104 103 103 102 101 100 98 97 97 95 93 93 93 92 89 87 86 85 85 86 85 83 81 78 76 72 68 64 59 55 53 50 48 48 47 44 39 35 33 33 34 33 26 19 13 8 4 359 354 350 347 344 343 344 344 345 349 353 357 0 6 13 23 33 40 45 46 44 42
120 119 117 114 113 112 112 113 113 112 111 109 106 101 100 99 99 99 100 100 100 98 97 97 96 94 91 91 91 91 91 90 88 86 87 88 88 85 82 79 76 73 70 67 64 61 59 55 50 48 47 46 42 38 32 26 22 20 17 13 6 359 356 353 347 341 337 334 332 331 331 332 333 335 338 341 344 349 3 30 48 52 54 56 57
119 118 117 115 114 112 112 112 112 110 109 107 103 99 99 100 98 98 99 98 97 96 96 96 95 93 93 93 92 92 92 92 91 90 90 90 89 87 84 80 77 75 72 69 65 63 61 58 54 51 50 48 45 41 36 30 23 15 10 7 3 356 351 349 344 338 333 330 326 322 321 321 321 321 320 322 326 329 329 336 3 30 54 65 70
118 117 116 115 114 113 112 111 109 107 105 102 97 95 98 100 99 99 100 100 98 97 97 95 94 95 96 96 96 95 95 95 94 93 93 92 90 88 85 82 79 76 72 69 65 61 59 58 54 52 50 48 45 43 40 35 31 23 14 7 2 356 348 342 338 336 333 329 326 323 319 316 315 314 314 314 316 314 307 302 304 308 341 88 90
118 118 116 114 114 115 114 112 110 108 106 103 100 98 99 100 100 99 100 100 99 98 97 95 94 96 96 96 96 96 95 93 92 91 91 90 88 85 83 81 78 74 71 68 64 60 58 56 53 51 49 47 45 43 39 36 32 27 22 15 8 359 348 339 334 332 329 327 326 324 322 318 314 311 310 313 313 308 299 294 292 285 263 209 151
115 115 114 112 112 113 113 112 111 110 108 107 105 102 101 101 100 100 100 100 99 98 97 96 96 96 96 95 95 94 92 91 90 89 88 86 85 82 79 76 73 70 68 66 63 59 57 54 51 50 48 45 41 39 36 33 30 26 23 20 14 6 359 349 339 331 329 328 327 328 327 325 322 316 311 310 310 307 303 298 291 281 266 243 216
112 112 112 111 110 110 111 111 110 110 109 108 106 105 104 103 102 102 102 102 101 101 101 100 99 99 98 97 95 93 92 91 90 88 86 84 82 80 77 74 72 69 67 64 61 58 55 52 50 48 46 44 42 40 37 33 29 25 20 17 14 11 8 4 356 346 339 333 333 335 335 331 327 324 320 316 313 310 309 307 300 289 278 265 250